Regional Weather Roundup
Issued by NWS Kansas City/Pleasant Hill, MO

Home | Current Version | Previous Version | Graphics & Text | Print | Product List | Glossary Off
Versions: 1 2 3 4 5 6 7 8 9 10 11 12 13 14 15 16 17 18 19 20 21 22 23 24 25 26 27 28 29 30 31 32 33 34 35 36 37 38 39 40 41 42 43 44 45 46 47 48 49 50

000
ASUS43 KEAX 190311
RWREAX

WEATHER ROUNDUP FOR EASTERN KANSAS AND NORTHWEST MISSOURI
NATIONAL WEATHER SERVICE KANSAS CITY/PLEASANT HILL MO
900 PM CST THU DEC 18 2014

KSZ040-057-103>105-MOZ028-029-037-043-190400-
...KANSAS CITY METROPOLITAN AREA...

CITY           SKY/WX    TMP DP  RH WIND       PRES   REMARKS
K.C. INTL      CLOUDY    31  29  92 E6        30.25R FOG     WCI  25
K.C. DOWNTOWN  CLOUDY    33  30  88 E6        30.26R WCI  28
LEES SUMMIT    CLOUDY    32  29  88 CALM      30.25R
OLATHE - IXD   CLOUDY    32  31  96 CALM      30.24R FOG
OLATHE - OJC   CLOUDY    32  30  92 E3        30.23R FOG
LAWRENCE       CLOUDY    32  29  88 N3        30.26R

$$

MOZ001>008-011>017-020>025-030>033-038>040-044>046-053-054-190400-
...NORTHERN AND CENTRAL MISSOURI...

CITY           SKY/WX    TMP DP  RH WIND       PRES   REMARKS
ST. JOSEPH     CLOUDY    31  28  89 E5        30.27R WCI  26
MOSBY          CLOUDY    32  32 100 CALM      30.26S FOG
WARRENSBURG    CLOUDY    32  32 100 NE3       30.25S FOG
WHITEMAN AFB   CLOUDY    32  31  95 NE5       30.24R FOG     WCI  28
CLINTON        CLOUDY    34  34 100 CALM      30.25S FOG
SEDALIA        CLOUDY    33  32  96 E5        30.25R FOG     WCI  29
WARSAW         NOT AVBL
MARSHALL       CLOUDY    34  32  93 E6        30.26R FOG     WCI  29
CHILLICOTHE      N/A     31  26  82 CALM      30.28R
MOBERLY        CLOUDY    32  27  80 NE3       30.27R
KIRKSVILLE     CLOUDY    29  27  92 E5        30.26S WCI  24

$$

MOZ041-047>049-056>058-063>065-088>090-097-190400-
...EASTERN AND SOUTHERN MISSOURI...

CITY           SKY/WX    TMP DP  RH WIND       PRES   REMARKS
ST. LOUIS INTL CLOUDY    34  25  69 NE5       30.28S WCI  30
SPIRIT OF STL  CLOUDY    33  27  78 NE3       30.27S
COLUMBIA       CLOUDY    32  30  92 E6        30.25S WCI  26
JEFFERSON CITY CLOUDY    34  30  85 E6        30.27R WCI  29
MEXICO         CLOUDY   N/A N/A N/A NE3       30.26S
HANNIBAL       CLOUDY    30  25  80 CALM      30.28S
ROLLA          FOG       33  32  96 E6        30.22R VSB 1/2 WCI  28
OSAGE BEACH    CLOUDY    34  32  93 NE3       30.23S VSB 1/2
SPRINGFIELD    CLOUDY    38  36  92 NE3       30.20R
BRANSON        FOG       37  37 100 CALM      30.21S VSB 1
NEVADA         CLOUDY    34  32  93 CALM      30.25S
JOPLIN         CLOUDY    37  36  96 N3        30.23R FOG
WEST PLAINS    FOG       36  35  96 E3        30.22S VSB 1/2

$$

IAZ060-094-KSZ022-034>040-054-083-096-NEZ052-066-093-190400-
...KANSAS...SOUTHEAST NEBRASKA AND IOWA...

CITY           SKY/WX    TMP DP  RH WIND       PRES   REMARKS
TOPEKA         CLOUDY    33  29  85 CALM      30.26R
MANHATTAN      CLOUDY    32  28  85 SE3       30.25R
EMPORIA        CLOUDY    31  29  92 N5        30.23R WCI  26
CHANUTE        CLOUDY    34  32  92 N3        30.24R FOG
WICHITA        CLOUDY    32  29  88 E5        30.23R WCI  27
OMAHA          CLOUDY    31  27  85 SE6       30.24S WCI  25
LINCOLN        CLOUDY    31  28  89 S7        30.23R WCI  24
FALLS CITY     CLOUDY    30  27  88 CALM      30.24S
LAMONI         CLOUDY    29  25  85 CALM      30.24S
DES MOINES     CLOUDY    28  22  78 SE6       30.26S WCI  22

$$



USA.gov is the U.S. government's official web portal to all federal, state and local government web resources and services.